Regional Weather Roundup
Issued by NWS

Home | Current Version | Previous Version | Graphics & Text | Print | Product List | Glossary On
Versions: 1 2 3 4 5 6 7 8 9 10 11 12 13 14 15 16 17 18 19 20 21 22 23 24 25 26 27 28 29 30 31 32 33 34 35 36 37 38 39 40 41 42 43 44 45 46 47 48 49 50
000
ASUS43 KDTX 022201
RWRMI
MICHIGAN HOURLY REGIONAL WEATHER ROUNDUP
NATIONAL WEATHER SERVICE DETROIT/PONTIAC MI
600 PM EDT TUE JUN 02 2015

NOTE: "FAIR" INDICATES FEW OR NO CLOUDS BELOW 12,000 FEET WITH NO
SIGNIFICANT WEATHER AND/OR OBSTRUCTION TO VISIBILITY.

MIZ047>049-052>055-059>063-066>070-074>076-081>083-022300-
SOUTHEAST LOWER MICHIGAN

CITY           SKY/WX    TMP DP  RH WIND       PRES   REMARKS
ADRIAN         SUNNY     66  44  45 SE12      30.15R
ALMA           SUNNY     70  43  36 CALM      30.13F
ANN ARBOR      MOSUNNY   68  51  54 SE8       30.13S
BAD AXE        SUNNY     67  35  31 CALM      30.16S
CARO           PTSUNNY   68  43  40 SE5       30.13F
DETROIT CITY   MOSUNNY   67  51  56 SE8       30.14S
DETROIT        PTSUNNY   68  51  54 SE7       30.14S
FLINT          MOSUNNY   73  45  36 E7        30.13S
GROSSE ILE     SUNNY     64  55  72 SE8       30.13S
HILLSDALE      MOSUNNY   69  49  48 SE7       30.13S
HOWELL         MOSUNNY   71  39  31 E5        30.13S

CITY           SKY/WX    TMP DP  RH WIND       PRES   REMARKS
JACKSON        MOSUNNY   69  48  47 S6        30.13R
LAMBERTVILLE   SUNNY     64  43  45 E10G18    30.15S
LANSING        SUNNY     71  47  42 S5        30.13S
LAPEER         FAIR      67  38  35 E5        30.14F
MASON          SUNNY     68  47  45 SE5       30.13R
MONROE         SUNNY     64  46  52 SE8       30.13F
MT. CLEMENS    MOSUNNY   66  51  59 SE10      30.12S
PONTIAC        PTSUNNY   69  42  37 VRB5      30.12S
PORT HOPE        N/A     57  45  64 N3        30.15F
PORT HURON     SUNNY     66  43  42 NE8       30.15R
TRI CITIES     PTSUNNY   69  43  38 NE10      30.15S
MIDLAND        FAIR      70  44  38 E10       30.13F
TROY           MOSUNNY   70  46  42 SE6       30.15S
SAGINAW HB     PTSUNNY   68  37  32 N12       30.14S
$$
MIZ043>046-050>051-056>058-064>065-071>073-077>080-022300-
SOUTHWEST LOWER MICHIGAN

CITY           SKY/WX    TMP DP  RH WIND       PRES   REMARKS
BATTLE CREEK   MOSUNNY   72  50  45 S3        30.12F
BENTON HARBOR  MOSUNNY   61  46  57 VRB7      30.11F
BIG RAPIDS     SUNNY     70  33  24 SE7       30.12S
COLDWATER      MOSUNNY   67  49  52 SE7       30.12S
FREMONT        FAIR      71  35  25 S7        30.11S
HOLLAND        SUNNY     67  49  52 NW8       30.12S
GRAND RAPIDS   MOSUNNY   71  47  42 S3        30.12F
IONIA          FAIR      70  47  42 E5        30.12S
KALAMAZOO      MOSUNNY   72  49  44 S7        30.11S
LUDINGTON      MOSUNNY   61  41  48 W6        30.14S
MARSHALL       SUNNY     71  48  43 E7        30.11F
MOUNT PLEASANT SUNNY     71  40  32 SE5       30.12F
MUSKEGON       MOSUNNY   66  45  46 W8        30.12F
SOUTH HAVEN    SUNNY     64  45  50 N6        30.11S
$$
MIZ016>042-022300-
NORTHERN LOWER MICHIGAN

CITY           SKY/WX    TMP DP  RH WIND       PRES   REMARKS
ALPENA         MOSUNNY   65  35  33 SE12      30.16F
BEAVER ISLAND  MOSUNNY   63  33  32 W6        30.14R
BELLAIRE       SUNNY     74  35  23 NW3       30.10S
CADILLAC       SUNNY     71  34  25 SE8       30.11F
CHARLEVOIX     MOSUNNY   57  38  48 N6        30.15F
FRANKFORT      MOSUNNY   66  20  17 W6        30.13S
GAYLORD        SUNNY     73  35  25 S9        30.11F
GRAYLING       SUNNY     71  32  23 SW8       30.13F
HARBOR SPRINGS SUNNY     57  40  52 SW3       30.12F
HOUGHTON LAKE  SUNNY     70  37  29 SE7       30.13F
MANISTEE       SUNNY     61  36  39 W9        30.15R
OSCODA         SUNNY     64  33  31 SE8       30.17R
PELLSTON       SUNNY     70  38  31 N8        30.12F
ROGERS CITY    MOSUNNY   69  38  33 SE13      30.14S
TRAVERSE CITY  PTSUNNY   63  37  38 N5        30.11S
$$
MIZ007>008-015-022300-
EASTERN UPPER MICHIGAN

CITY           SKY/WX    TMP DP  RH WIND       PRES   REMARKS
KINROSS        SUNNY     68  34  28 S10       30.13S
MACKINAC ISLAN SUNNY     64  34  33 E3        30.13F
NEWBERRY       SUNNY     65  34  30 S12       30.12S
S. S. MARIE    SUNNY     70  27  20 S10       30.11S
$$
MIZ004>006-011>014-085-022300-
CENTRAL UPPER MICHIGAN

CITY           SKY/WX    TMP DP  RH WIND       PRES   REMARKS
MANISTIQUE     MOSUNNY   55  38  51 S7        30.13S
ESCANABA       MOSUNNY   63  43  48 S13       30.09F
MENOMINEE      PTSUNNY   66  43  42 S13       30.09S
SAWYER-GWINN   SUNNY     70  41  35 S15G21    30.05F
$$
MIZ001>003-009>011-084-022300-
WESTERN UPPER MICHIGAN

CITY           SKY/WX    TMP DP  RH WIND       PRES   REMARKS
IRON MOUNTAIN  SUNNY     71  40  32 S10       30.05F
HOUGHTON       MOSUNNY   66  33  29 E7        30.00F
COPPER HARBOR    N/A     69  33  26 VRB6      30.01F
IRONWOOD       SUNNY     73  41  31 SE12      29.94F
$$

ABBREVIATIONS USED IN REMARKS
   TC - TEMPERATURE IN CELSIUS
  WCI - WIND CHILL INDEX
   HX - HEAT INDEX
  VSB - VISIBILITY




USA.gov is the U.S. government's official web portal to all federal, state and local government web resources and services.